SCP
0 0 0 0 0 0 0 0 0 0 0 0 0 0 0 0 0 0 0 0 0 0 0 0 0 0 0 0 0 0 0 0 0 0 0 0 0 0 0 0 0 0 0
0 0 0 0 0 0 0 0 0 0 0 0 0 0 0 0 0 0 0 0 0 0 0 0 0 0 0 0 0 0 0 0 0 0 0 0 0 0 0 0 0 0 0
0 0 0 0 0 0 0 0 0 0 0 0 0 0 0 0 0 0 0 0 0 0 0 0 1 1 0 0 0 0 0 0 0 0 0 0 0 0 0 0 0 -0 0
0 0 0 0 0 0 0 0 0 0 0 0 0 0 0 0 0 0 0 0 0 0 0 1 1 0 0 0 0 0 0 0 0 0 0 0 0 0 0 0 0 0 0
0 0 0 0 0 0 0 0 0 0 0 0 0 0 0 0 0 0 0 0 0 0 1 0 0 0 0 0 0 0 0 0 0 0 0 0 0 0 0 0 0 -0 -0
0 0 0 0 0 0 0 0 0 0 0 0 0 0 0 0 0 0 0 0 0 0 0 0 0 0 0 0 0 0 0 0 0 0 0 0 0 0 -0 0 0 0 -0
0 0 0 0 0 0 0 0 0 0 0 0 0 0 0 0 0 0 0 0 0 0 0 0 0 0 0 0 0 0 0 0 0 0 0 0 0 0 0 0 0 0 0
1 0 0 0 0 0 0 0 0 0 0 0 0 0 0 0 0 0 0 0 0 0 0 0 0 0 0 0 0 0 0 0 0 0 0 0 0 0 0 0 0 0 0
1 1 0 0 0 0 0 0 0 0 0 0 0 0 0 0 0 0 0 0 0 0 0 0 0 0 0 0 0 0 0 0 0 0 0 0 0 0 0 0 0 0 0
1 1 1 1 0 0 0 0 0 0 0 0 0 0 0 0 0 0 0 0 0 0 0 0 0 0 0 0 0 0 0 0 0 0 0 0 0 0 0 0 0 0 0
1 1 1 1 0 0 0 0 0 0 0 0 0 0 0 0 0 0 0 0 0 0 0 0 0 0 0 0 0 0 0 0 0 0 0 0 0 0 0 0 0 0 0
0 1 1 1 1 1 0 0 0 0 0 0 0 0 0 0 0 0 0 0 0 0 0 0 0 0 0 0 0 0 0 0 0 0 0 0 0 0 0 0 0 0 0
0 1 1 1 1 1 1 0 0 0 0 0 0 0 0 0 0 0 0 0 0 0 0 0 0 0 0 0 0 0 0 0 0 0 0 0 0 0 0 0 -0 -0 -0
0 1 1 1 1 1 0 0 0 0 0 0 0 0 0 0 0 0 0 0 0 0 0 0 0 0 0 0 0 0 0 0 0 0 0 0 0 0 0 0 -0 -0 -0
0 1 1 1 1 1 1 0 0 0 0 0 0 0 0 0 0 0 0 0 0 0 0 0 0 0 0 0 0 0 0 0 0 0 0 0 0 0 0 0 0 0 -0
1 1 1 1 1 1 0 0 0 0 0 0 0 0 0 0 0 0 0 0 0 0 0 0 0 0 0 0 0 0 0 0 0 0 0 0 0 0 0 0 0 0 -0
1 1 1 1 1 1 0 0 0 0 0 0 0 0 0 0 0 0 0 0 0 0 0 0 0 0 0 0 0 0 0 0 0 0 0 0 0 0 0 0 0 0 0
1 1 1 1 1 1 0 0 0 0 0 0 0 0 0 0 0 0 0 0 0 0 0 0 0 0 0 0 0 0 0 0 0 0 0 0 0 0 0 0 0 0 0
1 1 1 1 1 0 0 0 0 0 0 0 0 0 0 0 0 0 0 0 0 0 0 0 0 0 0 0 0 0 0 0 0 0 0 0 0 0 0 0 0 0 0
1 1 1 1 0 0 0 0 0 0 0 0 0 0 0 0 0 0 0 0 0 0 0 0 0 0 0 0 0 0 0 0 0 0 0 0 0 0 0 0 0 0 0
1 1 1 1 0 0 0 0 0 0 0 0 0 0 0 0 0 0 0 0 0 0 0 0 0 0 0 0 0 0 0 0 0 0 0 0 0 0 0 0 0 0 0
1 1 1 0 0 0 0 0 0 0 0 0 0 0 0 0 0 0 0 0 0 0 0 0 0 0 0 0 0 0 0 0 0 0 0 0 0 0 0 0 0 0 0
0 0 0 0 0 0 0 0 0 0 0 0 0 0 0 0 0 0 0 0 0 0 0 0 0 0 0 0 0 0 0 0 0 0 0 0 0 0 0 0 0 0 0
0 0 0 0 0 0 0 0 0 0 0 0 0 0 0 0 0 0 0 0 0 0 0 0 0 0 0 0 0 0 0 0 0 0 0 0 0 0 0 0 0 0 0
0 0 0 0 0 0 0 0 0 0 0 0 0 0 0 0 0 0 0 0 0 0 0 0 0 0 0 0 0 0 0 0 0 0 0 0 0 0 0 0 0 0 0
0 0 0 0 0 0 0 0 0 0 0 0 0 0 0 0 0 0 0 0 0 0 0 0 0 0 0 0 0 0 0 0 0 0 0 0 0 0 0 0 0 0 0
Wind_Speed_500mb
54 53 53 48 45 42 42 40 41 42 45 45 42 41 40 40 39 38 32 37 34 28 26 26 21 24 23 23 24 24 27 32 33 32 34 35 39 38 37 35 34 31 30
57 57 55 53 46 40 36 37 37 39 42 41 40 37 34 33 37 40 38 38 40 34 32 31 26 27 27 18 29 28 28 31 33 32 33 35 34 35 34 31 34 34 30
60 59 54 53 42 31 32 36 37 38 40 39 37 33 30 30 31 32 33 35 36 32 36 39 36 30 38 29 26 27 28 30 33 33 33 33 31 30 30 31 32 36 31
51 54 49 52 36 33 34 38 39 38 40 39 34 30 29 26 20 24 25 29 36 30 27 38 44 45 33 31 25 26 25 28 33 34 35 33 31 32 32 30 34 35 33
50 46 46 49 40 37 37 38 42 40 41 38 34 30 30 26 21 27 26 29 32 32 36 40 39 34 34 31 28 27 24 24 34 36 37 34 32 33 33 31 38 34 32
49 47 48 51 46 41 39 41 43 43 42 37 34 33 32 30 30 33 34 35 37 37 35 36 37 40 39 36 33 33 28 25 30 37 38 36 34 32 29 32 34 35 31
62 52 50 49 51 46 43 44 43 43 41 38 35 35 34 35 36 37 40 38 37 39 36 37 40 35 33 35 33 35 30 28 26 34 38 38 35 32 28 30 30 33 29
73 61 49 50 53 51 46 47 42 41 39 37 36 33 34 38 38 35 37 40 40 43 41 38 38 33 29 30 32 37 31 29 26 32 38 39 35 31 28 28 30 28 27
72 59 51 52 59 55 51 48 42 39 38 36 34 31 13 18 10 19 25 28 34 36 32 32 35 31 32 37 36 37 37 34 30 31 37 40 34 32 28 27 24 25 21
68 53 55 58 60 58 56 51 43 38 38 39 38 42 48 32 12 7 18 25 24 17 26 31 33 34 34 35 38 42 40 34 33 30 34 36 33 32 30 32 30 24 18
64 54 59 63 61 63 56 52 47 42 39 41 41 40 43 46 44 43 37 31 30 23 25 25 27 32 31 32 30 28 31 34 25 29 33 31 31 33 31 35 34 26 14
62 61 64 62 61 63 61 53 47 43 39 40 35 39 42 40 41 45 42 38 33 28 24 26 30 32 31 28 28 28 33 32 31 28 31 28 30 31 29 32 39 29 24
71 69 68 60 57 57 53 45 44 41 41 36 35 35 35 34 32 34 32 28 23 25 24 26 23 23 24 26 24 27 32 31 32 31 30 31 30 29 29 30 34 37 36
69 66 60 52 47 41 43 40 40 39 38 38 33 31 31 31 32 28 25 20 22 20 25 24 17 15 16 13 24 23 26 27 32 34 34 34 32 29 31 35 35 42 35
70 66 54 47 36 36 38 38 39 36 36 35 31 31 26 24 25 26 24 20 21 17 16 10 12 12 18 15 19 31 30 29 28 32 35 34 33 29 36 39 38 39 36
73 62 52 43 37 38 40 38 36 32 33 34 35 29 26 24 26 27 23 22 23 19 12 9 10 14 12 14 15 21 32 31 29 33 32 30 29 28 36 37 44 47 32
57 53 52 46 43 43 42 31 35 35 33 36 33 29 25 26 28 26 23 24 22 19 19 14 12 9 9 18 17 20 31 29 31 32 29 27 28 33 31 31 33 37 28
53 50 51 49 47 45 37 40 39 35 33 33 30 28 27 29 29 25 24 23 21 20 18 13 8 11 6 27 18 26 29 29 33 32 31 28 28 30 31 27 31 33 32
52 53 51 51 49 43 40 40 36 35 31 27 25 25 27 30 28 26 24 24 23 22 19 13 10 22 23 23 24 25 28 30 34 33 31 24 18 25 38 41 35 40 35
54 54 51 50 46 38 41 39 36 31 27 25 23 23 27 28 28 27 28 25 24 26 24 20 16 27 31 24 27 31 33 34 35 34 32 28 28 28 24 36 37 36 34
50 49 50 50 46 47 38 36 31 29 28 25 23 23 26 27 28 29 29 28 28 29 29 27 26 33 39 34 32 34 35 38 37 34 34 32 32 27 29 33 37 29 25
51 52 51 52 54 47 36 32 29 29 27 25 26 26 30 31 32 34 33 31 27 30 31 28 33 44 46 41 35 37 41 40 42 39 41 36 30 32 34 35 32 33 27
53 54 56 56 52 40 35 32 30 25 24 26 30 30 29 29 29 26 32 34 31 31 25 17 21 39 41 44 41 41 46 48 46 43 35 37 33 33 30 35 33 28 26
59 60 57 49 43 39 34 31 24 23 25 27 24 23 19 25 23 27 30 35 32 31 31 21 15 24 27 34 36 33 37 42 40 43 41 41 37 34 33 33 31 29 26
66 57 52 43 39 36 33 24 23 23 22 19 18 19 23 24 27 27 24 26 36 35 32 23 16 19 21 23 33 33 45 48 50 49 47 39 42 39 33 32 30 30 28
58 57 47 41 37 31 26 23 22 21 19 17 15 17 23 22 20 21 26 28 33 34 31 31 27 27 26 24 25 23 33 44 50 44 48 42 42 39 31 34 32 31 30
Wind_Direction_500mb
256 261 266 267 273 275 278 278 279 281 281 282 280 275 270 269 266 262 254 242 243 252 263 276 267 273 271 285 295 287 254 241 237 231 224 222 227 233 238 238 231 232 221
265 266 270 274 275 276 279 280 277 278 277 278 277 272 268 265 265 257 251 242 240 251 265 271 260 269 258 282 278 280 258 239 237 231 225 223 225 231 239 234 234 224 223
264 269 274 275 274 268 276 275 271 271 273 277 279 271 263 268 267 250 252 243 238 250 269 275 258 266 282 278 263 270 263 240 233 230 228 227 226 227 227 234 236 224 231
259 266 272 273 267 267 275 277 274 271 271 273 278 268 261 263 254 237 243 235 240 259 266 270 274 276 277 271 267 263 266 245 236 231 230 231 229 233 232 230 239 226 236
252 258 268 272 265 267 274 279 281 272 269 270 272 263 257 257 246 236 237 245 248 265 264 263 269 268 271 265 263 266 269 259 237 230 230 231 232 234 236 230 236 225 239
252 256 266 268 267 271 278 283 286 276 270 267 264 256 250 252 251 243 241 249 253 263 273 273 271 278 276 273 266 260 266 265 245 231 229 230 232 235 233 233 233 229 246
258 256 262 268 267 275 282 284 280 272 267 260 261 256 249 254 259 253 248 255 260 261 273 274 274 272 263 257 258 254 254 261 260 236 226 227 227 233 232 228 227 220 245
254 255 263 272 273 275 277 281 277 272 266 256 257 261 263 265 262 255 251 260 264 265 274 272 274 268 262 258 258 252 249 259 265 235 223 223 224 229 230 231 213 229 239
250 260 269 274 273 274 273 273 269 267 267 260 253 243 236 236 230 244 249 266 270 268 270 266 266 261 259 262 257 243 248 249 249 237 222 221 220 224 221 209 211 226 227
256 262 271 268 271 273 272 265 257 257 255 250 246 240 242 249 256 255 262 274 269 270 278 274 266 264 263 262 258 249 242 238 245 232 223 219 216 221 215 209 215 222 220
258 257 260 261 267 271 267 261 253 251 246 246 244 242 240 245 252 261 269 265 271 281 279 278 274 266 266 265 254 237 224 227 229 223 223 215 215 215 215 212 214 216 168
251 256 255 260 267 270 261 255 245 244 246 246 237 241 244 248 253 257 257 270 277 272 278 288 279 268 265 262 248 224 217 216 232 223 217 215 211 217 217 214 207 205 172
248 251 254 261 270 270 254 236 239 238 247 229 227 239 244 247 255 256 259 258 256 268 280 290 280 265 256 254 233 225 213 225 221 220 215 209 209 217 208 203 200 186 176
245 251 255 259 267 251 229 228 233 234 233 224 226 228 238 243 241 245 250 250 255 261 284 292 278 266 251 256 230 221 210 220 219 213 207 205 207 213 201 198 192 180 177
243 247 251 258 246 224 222 229 233 214 221 220 224 226 235 232 230 243 247 249 250 267 282 305 260 272 251 260 244 220 226 221 214 200 200 205 209 202 198 190 187 181 191
241 244 240 244 225 221 223 226 204 210 219 215 218 221 226 228 234 239 241 244 252 250 246 292 283 265 259 233 227 206 197 191 192 195 196 203 210 198 194 198 198 188 195
245 238 232 232 222 220 225 222 202 218 210 211 212 220 227 231 235 235 230 238 244 240 249 263 271 252 235 222 189 193 177 179 185 186 188 196 191 194 192 185 191 167 190
241 230 228 222 217 221 220 199 207 210 205 206 217 226 231 232 229 225 224 236 234 235 235 237 246 193 136 152 159 161 167 178 181 183 184 188 190 194 186 171 181 178 172
224 215 217 213 214 217 200 198 210 196 202 212 223 230 233 228 223 226 227 235 229 228 219 232 213 188 162 173 165 162 163 161 164 173 172 174 192 201 197 171 182 179 185
209 209 207 208 211 198 194 201 188 194 203 210 216 223 225 226 231 236 234 234 228 223 218 217 213 194 180 172 175 172 165 163 158 166 166 158 157 156 174 182 182 188 179
204 202 204 200 191 186 190 187 197 203 199 206 218 225 227 231 233 234 231 228 223 217 215 215 213 196 188 182 180 173 164 165 158 164 165 168 170 170 165 181 183 187 189
201 199 194 184 180 181 180 185 189 196 210 224 234 237 238 237 236 235 229 217 220 221 216 215 211 191 196 193 182 173 162 159 148 161 162 157 165 168 173 179 181 190 203
190 186 177 178 174 180 181 187 198 210 227 237 244 245 241 237 234 234 227 217 211 212 214 237 240 206 199 194 186 175 172 168 164 167 172 158 171 177 181 188 195 204 200
176 172 169 173 179 179 187 192 202 221 236 240 238 236 222 222 226 230 225 224 209 205 205 206 222 218 211 192 189 184 186 180 173 168 174 174 177 187 195 200 203 202 206
166 162 166 170 181 181 186 196 217 227 226 227 231 222 207 219 225 222 211 214 203 202 195 184 184 200 188 192 187 187 184 184 173 175 183 185 187 191 201 207 209 210 215
162 165 168 175 176 185 193 207 215 213 221 222 220 206 194 203 199 213 202 181 181 182 180 173 181 173 182 181 192 202 204 191 185 182 190 197 194 195 199 212 217 226 227
Wind_Speed_850mb
54 53 53 48 45 42 42 40 41 42 45 45 42 41 40 40 39 38 32 37 34 28 26 26 21 24 23 23 24 24 27 32 33 32 34 35 39 38 37 35 34 31 30
57 57 55 53 46 40 36 37 37 39 42 41 40 37 34 33 37 40 38 38 40 34 32 31 26 27 27 18 29 28 28 31 33 32 33 35 34 35 34 31 34 34 30
60 59 54 53 42 31 32 36 37 38 40 39 37 33 30 30 31 32 33 35 36 32 36 39 36 30 38 29 26 27 28 30 33 33 33 33 31 30 30 31 32 36 31
51 54 49 52 36 33 34 38 39 38 40 39 34 30 29 26 20 24 25 29 36 30 27 38 44 45 33 31 25 26 25 28 33 34 35 33 31 32 32 30 34 35 33
50 46 46 49 40 37 37 38 42 40 41 38 34 30 30 26 21 27 26 29 32 32 36 40 39 34 34 31 28 27 24 24 34 36 37 34 32 33 33 31 38 34 32
49 47 48 51 46 41 39 41 43 43 42 37 34 33 32 30 30 33 34 35 37 37 35 36 37 40 39 36 33 33 28 25 30 37 38 36 34 32 29 32 34 35 31
62 52 50 49 51 46 43 44 43 43 41 38 35 35 34 35 36 37 40 38 37 39 36 37 40 35 33 35 33 35 30 28 26 34 38 38 35 32 28 30 30 33 29
73 61 49 50 53 51 46 47 42 41 39 37 36 33 34 38 38 35 37 40 40 43 41 38 38 33 29 30 32 37 31 29 26 32 38 39 35 31 28 28 30 28 27
72 59 51 52 59 55 51 48 42 39 38 36 34 31 13 18 10 19 25 28 34 36 32 32 35 31 32 37 36 37 37 34 30 31 37 40 34 32 28 27 24 25 21
68 53 55 58 60 58 56 51 43 38 38 39 38 42 48 32 12 7 18 25 24 17 26 31 33 34 34 35 38 42 40 34 33 30 34 36 33 32 30 32 30 24 18
64 54 59 63 61 63 56 52 47 42 39 41 41 40 43 46 44 43 37 31 30 23 25 25 27 32 31 32 30 28 31 34 25 29 33 31 31 33 31 35 34 26 14
62 61 64 62 61 63 61 53 47 43 39 40 35 39 42 40 41 45 42 38 33 28 24 26 30 32 31 28 28 28 33 32 31 28 31 28 30 31 29 32 39 29 24
71 69 68 60 57 57 53 45 44 41 41 36 35 35 35 34 32 34 32 28 23 25 24 26 23 23 24 26 24 27 32 31 32 31 30 31 30 29 29 30 34 37 36
69 66 60 52 47 41 43 40 40 39 38 38 33 31 31 31 32 28 25 20 22 20 25 24 17 15 16 13 24 23 26 27 32 34 34 34 32 29 31 35 35 42 35
70 66 54 47 36 36 38 38 39 36 36 35 31 31 26 24 25 26 24 20 21 17 16 10 12 12 18 15 19 31 30 29 28 32 35 34 33 29 36 39 38 39 36
73 62 52 43 37 38 40 38 36 32 33 34 35 29 26 24 26 27 23 22 23 19 12 9 10 14 12 14 15 21 32 31 29 33 32 30 29 28 36 37 44 47 32
57 53 52 46 43 43 42 31 35 35 33 36 33 29 25 26 28 26 23 24 22 19 19 14 12 9 9 18 17 20 31 29 31 32 29 27 28 33 31 31 33 37 28
53 50 51 49 47 45 37 40 39 35 33 33 30 28 27 29 29 25 24 23 21 20 18 13 8 11 6 27 18 26 29 29 33 32 31 28 28 30 31 27 31 33 32
52 53 51 51 49 43 40 40 36 35 31 27 25 25 27 30 28 26 24 24 23 22 19 13 10 22 23 23 24 25 28 30 34 33 31 24 18 25 38 41 35 40 35
54 54 51 50 46 38 41 39 36 31 27 25 23 23 27 28 28 27 28 25 24 26 24 20 16 27 31 24 27 31 33 34 35 34 32 28 28 28 24 36 37 36 34
50 49 50 50 46 47 38 36 31 29 28 25 23 23 26 27 28 29 29 28 28 29 29 27 26 33 39 34 32 34 35 38 37 34 34 32 32 27 29 33 37 29 25
51 52 51 52 54 47 36 32 29 29 27 25 26 26 30 31 32 34 33 31 27 30 31 28 33 44 46 41 35 37 41 40 42 39 41 36 30 32 34 35 32 33 27
53 54 56 56 52 40 35 32 30 25 24 26 30 30 29 29 29 26 32 34 31 31 25 17 21 39 41 44 41 41 46 48 46 43 35 37 33 33 30 35 33 28 26
59 60 57 49 43 39 34 31 24 23 25 27 24 23 19 25 23 27 30 35 32 31 31 21 15 24 27 34 36 33 37 42 40 43 41 41 37 34 33 33 31 29 26
66 57 52 43 39 36 33 24 23 23 22 19 18 19 23 24 27 27 24 26 36 35 32 23 16 19 21 23 33 33 45 48 50 49 47 39 42 39 33 32 30 30 28
58 57 47 41 37 31 26 23 22 21 19 17 15 17 23 22 20 21 26 28 33 34 31 31 27 27 26 24 25 23 33 44 50 44 48 42 42 39 31 34 32 31 30
Wind_Direction_850mb
256 261 266 267 273 275 278 278 279 281 281 282 280 275 270 269 266 262 254 242 243 252 263 276 267 273 271 285 295 287 254 241 237 231 224 222 227 233 238 238 231 232 221
265 266 270 274 275 276 279 280 277 278 277 278 277 272 268 265 265 257 251 242 240 251 265 271 260 269 258 282 278 280 258 239 237 231 225 223 225 231 239 234 234 224 223
264 269 274 275 274 268 276 275 271 271 273 277 279 271 263 268 267 250 252 243 238 250 269 275 258 266 282 278 263 270 263 240 233 230 228 227 226 227 227 234 236 224 231
259 266 272 273 267 267 275 277 274 271 271 273 278 268 261 263 254 237 243 235 240 259 266 270 274 276 277 271 267 263 266 245 236 231 230 231 229 233 232 230 239 226 236
252 258 268 272 265 267 274 279 281 272 269 270 272 263 257 257 246 236 237 245 248 265 264 263 269 268 271 265 263 266 269 259 237 230 230 231 232 234 236 230 236 225 239
252 256 266 268 267 271 278 283 286 276 270 267 264 256 250 252 251 243 241 249 253 263 273 273 271 278 276 273 266 260 266 265 245 231 229 230 232 235 233 233 233 229 246
258 256 262 268 267 275 282 284 280 272 267 260 261 256 249 254 259 253 248 255 260 261 273 274 274 272 263 257 258 254 254 261 260 236 226 227 227 233 232 228 227 220 245
254 255 263 272 273 275 277 281 277 272 266 256 257 261 263 265 262 255 251 260 264 265 274 272 274 268 262 258 258 252 249 259 265 235 223 223 224 229 230 231 213 229 239
250 260 269 274 273 274 273 273 269 267 267 260 253 243 236 236 230 244 249 266 270 268 270 266 266 261 259 262 257 243 248 249 249 237 222 221 220 224 221 209 211 226 227
256 262 271 268 271 273 272 265 257 257 255 250 246 240 242 249 256 255 262 274 269 270 278 274 266 264 263 262 258 249 242 238 245 232 223 219 216 221 215 209 215 222 220
258 257 260 261 267 271 267 261 253 251 246 246 244 242 240 245 252 261 269 265 271 281 279 278 274 266 266 265 254 237 224 227 229 223 223 215 215 215 215 212 214 216 168
251 256 255 260 267 270 261 255 245 244 246 246 237 241 244 248 253 257 257 270 277 272 278 288 279 268 265 262 248 224 217 216 232 223 217 215 211 217 217 214 207 205 172
248 251 254 261 270 270 254 236 239 238 247 229 227 239 244 247 255 256 259 258 256 268 280 290 280 265 256 254 233 225 213 225 221 220 215 209 209 217 208 203 200 186 176
245 251 255 259 267 251 229 228 233 234 233 224 226 228 238 243 241 245 250 250 255 261 284 292 278 266 251 256 230 221 210 220 219 213 207 205 207 213 201 198 192 180 177
243 247 251 258 246 224 222 229 233 214 221 220 224 226 235 232 230 243 247 249 250 267 282 305 260 272 251 260 244 220 226 221 214 200 200 205 209 202 198 190 187 181 191
241 244 240 244 225 221 223 226 204 210 219 215 218 221 226 228 234 239 241 244 252 250 246 292 283 265 259 233 227 206 197 191 192 195 196 203 210 198 194 198 198 188 195
245 238 232 232 222 220 225 222 202 218 210 211 212 220 227 231 235 235 230 238 244 240 249 263 271 252 235 222 189 193 177 179 185 186 188 196 191 194 192 185 191 167 190
241 230 228 222 217 221 220 199 207 210 205 206 217 226 231 232 229 225 224 236 234 235 235 237 246 193 136 152 159 161 167 178 181 183 184 188 190 194 186 171 181 178 172
224 215 217 213 214 217 200 198 210 196 202 212 223 230 233 228 223 226 227 235 229 228 219 232 213 188 162 173 165 162 163 161 164 173 172 174 192 201 197 171 182 179 185
209 209 207 208 211 198 194 201 188 194 203 210 216 223 225 226 231 236 234 234 228 223 218 217 213 194 180 172 175 172 165 163 158 166 166 158 157 156 174 182 182 188 179
204 202 204 200 191 186 190 187 197 203 199 206 218 225 227 231 233 234 231 228 223 217 215 215 213 196 188 182 180 173 164 165 158 164 165 168 170 170 165 181 183 187 189
201 199 194 184 180 181 180 185 189 196 210 224 234 237 238 237 236 235 229 217 220 221 216 215 211 191 196 193 182 173 162 159 148 161 162 157 165 168 173 179 181 190 203
190 186 177 178 174 180 181 187 198 210 227 237 244 245 241 237 234 234 227 217 211 212 214 237 240 206 199 194 186 175 172 168 164 167 172 158 171 177 181 188 195 204 200
176 172 169 173 179 179 187 192 202 221 236 240 238 236 222 222 226 230 225 224 209 205 205 206 222 218 211 192 189 184 186 180 173 168 174 174 177 187 195 200 203 202 206
166 162 166 170 181 181 186 196 217 227 226 227 231 222 207 219 225 222 211 214 203 202 195 184 184 200 188 192 187 187 184 184 173 175 183 185 187 191 201 207 209 210 215
162 165 168 175 176 185 193 207 215 213 221 222 220 206 194 203 199 213 202 181 181 182 180 173 181 173 182 181 192 202 204 191 185 182 190 197 194 195 199 212 217 226 227